﻿;Einspeisezeitreihe
;Umspannung HS/MS
;FE_MS/S_Einspeisung_KW
Datum;Leistungsmittelwert in kW
01.01.2023 00:15:00;29520 
01.01.2023 00:30:00;29460 
01.01.2023 00:45:00;29340 
01.01.2023 01:00:00;29460 
01.01.2023 01:15:00;29340 
01.01.2023 01:30:00;29280 
01.01.2023 01:45:00;29400 
01.01.2023 02:00:00;29340 
01.01.2023 02:15:00;29340 
01.01.2023 02:30:00;29340 
01.01.2023 02:45:00;29520 
01.01.2023 03:00:00;29400 
01.01.2023 03:15:00;29460 
01.01.2023 03:30:00;29460 
01.01.2023 03:45:00;29400 
01.01.2023 04:00:00;29520 
01.01.2023 04:15:00;29460 
01.01.2023 04:30:00;29520 
01.01.2023 04:45:00;29400 
01.01.2023 05:00:00;29520 
01.01.2023 05:15:00;29460 
01.01.2023 05:30:00;29460 
01.01.2023 05:45:00;29460 
01.01.2023 06:00:00;29400 
01.01.2023 06:15:00;29460 
01.01.2023 06:30:00;29340 
01.01.2023 06:45:00;29400 
01.01.2023 07:00:00;29400 
01.01.2023 07:15:00;29400 
01.01.2023 07:30:00;29460 
01.01.2023 07:45:00;29400 
01.01.2023 08:00:00;29340 
01.01.2023 08:15:00;29400 
01.01.2023 08:30:00;29460 
01.01.2023 08:45:00;29460 
01.01.2023 09:00:00;29400 
01.01.2023 09:15:00;29580 
01.01.2023 09:30:00;29460 
01.01.2023 09:45:00;29400 
01.01.2023 10:00:00;29520 
01.01.2023 10:15:00;29460 
01.01.2023 10:30:00;29880 
01.01.2023 10:45:00;29880 
01.01.2023 11:00:00;30000 
01.01.2023 11:15:00;30060 
01.01.2023 11:30:00;29880 
01.01.2023 11:45:00;29940 
01.01.2023 12:00:00;29880 
01.01.2023 12:15:00;29760 
01.01.2023 12:30:00;29400 
01.01.2023 12:45:00;29340 
01.01.2023 13:00:00;29460 
01.01.2023 13:15:00;29280 
01.01.2023 13:30:00;29820 
01.01.2023 13:45:00;34020 
01.01.2023 14:00:00;34140 
01.01.2023 14:15:00;34020 
01.01.2023 14:30:00;34380 
01.01.2023 14:45:00;34440 
01.01.2023 15:00:00;34260 
01.01.2023 15:15:00;34260 
01.01.2023 15:30:00;34320 
01.01.2023 15:45:00;34380 
01.01.2023 16:00:00;34260 
01.01.2023 16:15:00;34260 
01.01.2023 16:30:00;34200 
01.01.2023 16:45:00;34440 
01.01.2023 17:00:00;34260 
01.01.2023 17:15:00;34200 
01.01.2023 17:30:00;34380 
01.01.2023 17:45:00;34200 
01.01.2023 18:00:00;34320 
01.01.2023 18:15:00;34200 
01.01.2023 18:30:00;34440 
01.01.2023 18:45:00;34440 
01.01.2023 19:00:00;34140 
01.01.2023 19:15:00;34140 
01.01.2023 19:30:00;34260 
01.01.2023 19:45:00;34200 
01.01.2023 20:00:00;34380 
01.01.2023 20:15:00;34260 
01.01.2023 20:30:00;34320 
01.01.2023 20:45:00;34260 
01.01.2023 21:00:00;34380 
01.01.2023 21:15:00;34200 
01.01.2023 21:30:00;35580 
01.01.2023 21:45:00;35640 
01.01.2023 22:00:00;36960 
01.01.2023 22:15:00;36540 
01.01.2023 22:30:00;38400 
01.01.2023 22:45:00;38580 
01.01.2023 23:00:00;37080 
01.01.2023 23:15:00;37140 
01.01.2023 23:30:00;37560 
01.01.2023 23:45:00;36540 
02.01.2023 00:00:00;38400 
02.01.2023 00:15:00;38040 
02.01.2023 00:30:00;38220 
02.01.2023 00:45:00;39480 
02.01.2023 01:00:00;39600 
02.01.2023 01:15:00;38460 
02.01.2023 01:30:00;40440 
02.01.2023 01:45:00;40200 
02.01.2023 02:00:00;40740 
02.01.2023 02:15:00;39660 
02.01.2023 02:30:00;39060 
02.01.2023 02:45:00;38400 
02.01.2023 03:00:00;39240 
02.01.2023 03:15:00;36540 
02.01.2023 03:30:00;37860 
02.01.2023 03:45:00;37500 
02.01.2023 04:00:00;37800 
02.01.2023 04:15:00;37260 
02.01.2023 04:30:00;36360 
02.01.2023 04:45:00;35400 
02.01.2023 05:00:00;36540 
02.01.2023 05:15:00;35760 
02.01.2023 05:30:00;36420 
02.01.2023 05:45:00;36420 
02.01.2023 06:00:00;36660 
02.01.2023 06:15:00;36060 
02.01.2023 06:30:00;34980 
02.01.2023 06:45:00;34140 
02.01.2023 07:00:00;34380 
02.01.2023 07:15:00;35100 
02.01.2023 07:30:00;35340 
02.01.2023 07:45:00;35040 
02.01.2023 08:00:00;34860 
02.01.2023 08:15:00;34620 
02.01.2023 08:30:00;33180 
02.01.2023 08:45:00;30780 
02.01.2023 09:00:00;32100 
02.01.2023 09:15:00;31740 
02.01.2023 09:30:00;32040 
02.01.2023 09:45:00;31680 
02.01.2023 10:00:00;29580 
02.01.2023 10:15:00;30420 
02.01.2023 10:30:00;27180 
02.01.2023 10:45:00;29700 
02.01.2023 11:00:00;29220 
02.01.2023 11:15:00;29880 
02.01.2023 11:30:00;30120 
02.01.2023 11:45:00;29820 
02.01.2023 12:00:00;28320 
02.01.2023 12:15:00;29340 
02.01.2023 12:30:00;30780 
02.01.2023 12:45:00;30060 
02.01.2023 13:00:00;31860 
02.01.2023 13:15:00;31380 
02.01.2023 13:30:00;29520 
02.01.2023 13:45:00;30060 
02.01.2023 14:00:00;31080 
02.01.2023 14:15:00;31080 
02.01.2023 14:30:00;33180 
02.01.2023 14:45:00;34860 
02.01.2023 15:00:00;33480 
02.01.2023 15:15:00;34500 
02.01.2023 15:30:00;34680 
02.01.2023 15:45:00;34620 
02.01.2023 16:00:00;32580 
02.01.2023 16:15:00;30540 
02.01.2023 16:30:00;28800 
02.01.2023 16:45:00;26820 
02.01.2023 17:00:00;27720 
02.01.2023 17:15:00;29040 
02.01.2023 17:30:00;29040 
02.01.2023 17:45:00;31200 
02.01.2023 18:00:00;30660 
02.01.2023 18:15:00;31260 
02.01.2023 18:30:00;32220 
02.01.2023 18:45:00;31320 
02.01.2023 19:00:00;30480 
02.01.2023 19:15:00;32400 
02.01.2023 19:30:00;32880 
02.01.2023 19:45:00;30420 
02.01.2023 20:00:00;31320 
02.01.2023 20:15:00;30420 
02.01.2023 20:30:00;31680 
02.01.2023 20:45:00;31680 
02.01.2023 21:00:00;32160 
02.01.2023 21:15:00;30300 
02.01.2023 21:30:00;29640 
02.01.2023 21:45:00;27600 
02.01.2023 22:00:00;27960 
02.01.2023 22:15:00;30780 
02.01.2023 22:30:00;33420 
02.01.2023 22:45:00;35040 
02.01.2023 23:00:00;34680 
02.01.2023 23:15:00;33360 
02.01.2023 23:30:00;32580 
02.01.2023 23:45:00;32220 
03.01.2023 00:00:00;30840 
03.01.2023 00:15:00;30360 
03.01.2023 00:30:00;30840 
03.01.2023 00:45:00;36480 
03.01.2023 01:00:00;37620 
03.01.2023 01:15:00;38220 
03.01.2023 01:30:00;37740 
03.01.2023 01:45:00;38880 
03.01.2023 02:00:00;40440 
03.01.2023 02:15:00;41280 
03.01.2023 02:30:00;45060 
03.01.2023 02:45:00;42300 
03.01.2023 03:00:00;41940 
03.01.2023 03:15:00;42180 
03.01.2023 03:30:00;43680 
03.01.2023 03:45:00;43020 
03.01.2023 04:00:00;43980 
03.01.2023 04:15:00;44220 
03.01.2023 04:30:00;44040 
03.01.2023 04:45:00;43080 
03.01.2023 05:00:00;42540 
03.01.2023 05:15:00;42000 
03.01.2023 05:30:00;38760 
03.01.2023 05:45:00;38580 
03.01.2023 06:00:00;39780 
03.01.2023 06:15:00;40320 
03.01.2023 06:30:00;41520 
03.01.2023 06:45:00;40380 
03.01.2023 07:00:00;40740 
03.01.2023 07:15:00;35760 
03.01.2023 07:30:00;35460 
03.01.2023 07:45:00;37800 
03.01.2023 08:00:00;38400 
03.01.2023 08:15:00;39900 
03.01.2023 08:30:00;40140 
03.01.2023 08:45:00;41460 
03.01.2023 09:00:00;43080 
03.01.2023 09:15:00;43560 
03.01.2023 09:30:00;38880 
03.01.2023 09:45:00;38280 
03.01.2023 10:00:00;39120 
03.01.2023 10:15:00;39060 
03.01.2023 10:30:00;40320 
03.01.2023 10:45:00;37860 
03.01.2023 11:00:00;39300 
03.01.2023 11:15:00;38400 
03.01.2023 11:30:00;36480 
03.01.2023 11:45:00;36000 
03.01.2023 12:00:00;36180 
03.01.2023 12:15:00;35940 
03.01.2023 12:30:00;35460 
03.01.2023 12:45:00;35040 
03.01.2023 13:00:00;34140 
03.01.2023 13:15:00;30420 
03.01.2023 13:30:00;30840 
03.01.2023 13:45:00;32040 
03.01.2023 14:00:00;32460 
03.01.2023 14:15:00;33720 
03.01.2023 14:30:00;30720 
03.01.2023 14:45:00;22140 
03.01.2023 15:00:00;16560 
03.01.2023 15:15:00;16200 
03.01.2023 15:30:00;15240 
03.01.2023 15:45:00;12960 
03.01.2023 16:00:00;13260 
03.01.2023 16:15:00;14040 
03.01.2023 16:30:00;14040 
03.01.2023 16:45:00;13920 
03.01.2023 17:00:00;13800 
03.01.2023 17:15:00;11400 
03.01.2023 17:30:00;11340 
03.01.2023 17:45:00;12060 
03.01.2023 18:00:00;12360 
03.01.2023 18:15:00;12300 
03.01.2023 18:30:00;12060 
03.01.2023 18:45:00;11700 
03.01.2023 19:00:00;12000 
03.01.2023 19:15:00;13200 
03.01.2023 19:30:00;13560 
03.01.2023 19:45:00;13260 
03.01.2023 20:00:00;13260 
03.01.2023 20:15:00;13260 
03.01.2023 20:30:00;13200 
03.01.2023 20:45:00;13260 
03.01.2023 21:00:00;13380 
03.01.2023 21:15:00;13080 
03.01.2023 21:30:00;13140 
03.01.2023 21:45:00;13140 
03.01.2023 22:00:00;13140 
03.01.2023 22:15:00;13320 
03.01.2023 22:30:00;13320 
03.01.2023 22:45:00;13560 
03.01.2023 23:00:00;13500 
03.01.2023 23:15:00;13260 
03.01.2023 23:30:00;12900 
03.01.2023 23:45:00;13080 
04.01.2023 00:00:00;13020 
04.01.2023 00:15:00;13740 
04.01.2023 00:30:00;13380 
04.01.2023 00:45:00;13080 
04.01.2023 01:00:00;13020 
04.01.2023 01:15:00;13320 
04.01.2023 01:30:00;13860 
04.01.2023 01:45:00;13320 
04.01.2023 02:00:00;12840 
04.01.2023 02:15:00;13260 
04.01.2023 02:30:00;14040 
04.01.2023 02:45:00;13260 
04.01.2023 03:00:00;13380 
04.01.2023 03:15:00;13740 
04.01.2023 03:30:00;13800 
04.01.2023 03:45:00;13740 
04.01.2023 04:00:00;14160 
04.01.2023 04:15:00;14340 
04.01.2023 04:30:00;14280 
04.01.2023 04:45:00;14040 
04.01.2023 05:00:00;13800 
04.01.2023 05:15:00;13860 
04.01.2023 05:30:00;13620 
04.01.2023 05:45:00;13440 
04.01.2023 06:00:00;13500 
04.01.2023 06:15:00;12900 
04.01.2023 06:30:00;12480 
04.01.2023 06:45:00;12300 
04.01.2023 07:00:00;12540 
04.01.2023 07:15:00;12480 
04.01.2023 07:30:00;13020 
04.01.2023 07:45:00;13680 
04.01.2023 08:00:00;13440 
04.01.2023 08:15:00;13320 
04.01.2023 08:30:00;13260 
04.01.2023 08:45:00;12240 
04.01.2023 09:00:00;12120 
04.01.2023 09:15:00;13380 
04.01.2023 09:30:00;14280 
04.01.2023 09:45:00;14220 
04.01.2023 10:00:00;14520 
04.01.2023 10:15:00;14940 
04.01.2023 10:30:00;14580 
04.01.2023 10:45:00;14100 
04.01.2023 11:00:00;14220 
04.01.2023 11:15:00;14340 
04.01.2023 11:30:00;14700 
04.01.2023 11:45:00;14520 
04.01.2023 12:00:00;14580 
04.01.2023 12:15:00;14400 
04.01.2023 12:30:00;14280 
04.01.2023 12:45:00;14580 
04.01.2023 13:00:00;14760 
04.01.2023 13:15:00;14460 
04.01.2023 13:30:00;14940 
04.01.2023 13:45:00;15000 
04.01.2023 14:00:00;14880 
04.01.2023 14:15:00;14880 
04.01.2023 14:30:00;14460 
04.01.2023 14:45:00;14160 
04.01.2023 15:00:00;14280 
04.01.2023 15:15:00;13920 
04.01.2023 15:30:00;14340 
04.01.2023 15:45:00;14640 
04.01.2023 16:00:00;14640 
04.01.2023 16:15:00;14760 
04.01.2023 16:30:00;14880 
04.01.2023 16:45:00;14940 
04.01.2023 17:00:00;14940 
04.01.2023 17:15:00;14940 
04.01.2023 17:30:00;14640 
04.01.2023 17:45:00;13920 
04.01.2023 18:00:00;13800 
04.01.2023 18:15:00;13740 
04.01.2023 18:30:00;14340 
04.01.2023 18:45:00;14940 
04.01.2023 19:00:00;14940 
04.01.2023 19:15:00;14640 
04.01.2023 19:30:00;14580 
04.01.2023 19:45:00;14820 
04.01.2023 20:00:00;14580 
04.01.2023 20:15:00;14340 
04.01.2023 20:30:00;14580 
04.01.2023 20:45:00;14160 
04.01.2023 21:00:00;14280 
04.01.2023 21:15:00;14160 
04.01.2023 21:30:00;14280 
04.01.2023 21:45:00;14580 
04.01.2023 22:00:00;14460 
04.01.2023 22:15:00;13800 
04.01.2023 22:30:00;13740 
04.01.2023 22:45:00;13260 
04.01.2023 23:00:00;14100 
04.01.2023 23:15:00;13560 
04.01.2023 23:30:00;13860 
04.01.2023 23:45:00;14040 
05.01.2023 00:00:00;13560 
05.01.2023 00:15:00;13080 
05.01.2023 00:30:00;14640 
05.01.2023 00:45:00;15120 
05.01.2023 01:00:00;15420 
05.01.2023 01:15:00;13680 
05.01.2023 01:30:00;13140 
05.01.2023 01:45:00;12600 
05.01.2023 02:00:00;12540 
05.01.2023 02:15:00;13620 
05.01.2023 02:30:00;13800 
05.01.2023 02:45:00;14100 
05.01.2023 03:00:00;14580 
05.01.2023 03:15:00;13800 
05.01.2023 03:30:00;13320 
05.01.2023 03:45:00;13020 
05.01.2023 04:00:00;13620 
05.01.2023 04:15:00;14100 
05.01.2023 04:30:00;14160 
05.01.2023 04:45:00;14100 
05.01.2023 05:00:00;14220 
05.01.2023 05:15:00;15300 
05.01.2023 05:30:00;15900 
05.01.2023 05:45:00;15900 
05.01.2023 06:00:00;15900 
05.01.2023 06:15:00;14820 
05.01.2023 06:30:00;12960 
05.01.2023 06:45:00;13440 
05.01.2023 07:00:00;13860 
05.01.2023 07:15:00;14340 
05.01.2023 07:30:00;14820 
05.01.2023 07:45:00;14520 
05.01.2023 08:00:00;14580 
05.01.2023 08:15:00;14880 
05.01.2023 08:30:00;14940 
05.01.2023 08:45:00;13860 
05.01.2023 09:00:00;13680 
05.01.2023 09:15:00;13680 
05.01.2023 09:30:00;14340 
05.01.2023 09:45:00;15060 
05.01.2023 10:00:00;15180 
05.01.2023 10:15:00;15000 
05.01.2023 10:30:00;14400 
05.01.2023 10:45:00;14160 
05.01.2023 11:00:00;14040 
05.01.2023 11:15:00;13860 
05.01.2023 11:30:00;12780 
05.01.2023 11:45:00;11100 
05.01.2023 12:00:00;10560 
05.01.2023 12:15:00;10500 
05.01.2023 12:30:00;10320 
05.01.2023 12:45:00;10500 
05.01.2023 13:00:00;10860 
05.01.2023 13:15:00;11580 
05.01.2023 13:30:00;13200 
05.01.2023 13:45:00;13680 
05.01.2023 14:00:00;14040 
05.01.2023 14:15:00;13620 
05.01.2023 14:30:00;13740 
05.01.2023 14:45:00;13800 
05.01.2023 15:00:00;13440 
05.01.2023 15:15:00;13200 
05.01.2023 15:30:00;13140 
05.01.2023 15:45:00;13140 
05.01.2023 16:00:00;13140 
05.01.2023 16:15:00;13080 
05.01.2023 16:30:00;13320 
05.01.2023 16:45:00;13320 
05.01.2023 17:00:00;13320 
05.01.2023 17:15:00;13200 
05.01.2023 17:30:00;13320 
05.01.2023 17:45:00;13380 
05.01.2023 18:00:00;13560 
05.01.2023 18:15:00;13620 
05.01.2023 18:30:00;13260 
05.01.2023 18:45:00;12900 
05.01.2023 19:00:00;13080 
05.01.2023 19:15:00;13020 
05.01.2023 19:30:00;13260 
05.01.2023 19:45:00;13620 
05.01.2023 20:00:00;13260 
05.01.2023 20:15:00;12840 
05.01.2023 20:30:00;12840 
05.01.2023 20:45:00;12960 
05.01.2023 21:00:00;13200 
05.01.2023 21:15:00;13320 
05.01.2023 21:30:00;13020 
05.01.2023 21:45:00;12900 
05.01.2023 22:00:00;12960 
05.01.2023 22:15:00;12600 
05.01.2023 22:30:00;12540 
05.01.2023 22:45:00;12000 
05.01.2023 23:00:00;12000 
05.01.2023 23:15:00;12240 
05.01.2023 23:30:00;12120 
05.01.2023 23:45:00;12060 
06.01.2023 00:00:00;11940 
06.01.2023 00:15:00;11940 
06.01.2023 00:30:00;12060 
06.01.2023 00:45:00;12240 
06.01.2023 01:00:00;12360 
06.01.2023 01:15:00;12180 
06.01.2023 01:30:00;12180 
06.01.2023 01:45:00;11880 
06.01.2023 02:00:00;12060 
06.01.2023 02:15:00;12000 
06.01.2023 02:30:00;11700 
06.01.2023 02:45:00;11640 
06.01.2023 03:00:00;11640 
06.01.2023 03:15:00;11760 
06.01.2023 03:30:00;12060 
06.01.2023 03:45:00;12000 
06.01.2023 04:00:00;11940 
06.01.2023 04:15:00;12180 
06.01.2023 04:30:00;12660 
06.01.2023 04:45:00;12780 
06.01.2023 05:00:00;12660 
06.01.2023 05:15:00;12420 
06.01.2023 05:30:00;12480 
06.01.2023 05:45:00;12540 
06.01.2023 06:00:00;12660 
06.01.2023 06:15:00;12720 
06.01.2023 06:30:00;13380 
06.01.2023 06:45:00;13500 
06.01.2023 07:00:00;13920 
06.01.2023 07:15:00;13800 
06.01.2023 07:30:00;13740 
06.01.2023 07:45:00;13500 
06.01.2023 08:00:00;13200 
06.01.2023 08:15:00;12900 
06.01.2023 08:30:00;13200 
06.01.2023 08:45:00;13260 
06.01.2023 09:00:00;13140 
06.01.2023 09:15:00;13380 
06.01.2023 09:30:00;13740 
06.01.2023 09:45:00;13440 
06.01.2023 10:00:00;13560 
06.01.2023 10:15:00;13140 
06.01.2023 10:30:00;11880 
06.01.2023 10:45:00;12840 
06.01.2023 11:00:00;13260 
06.01.2023 11:15:00;13200 
06.01.2023 11:30:00;14040 
06.01.2023 11:45:00;14160 
06.01.2023 12:00:00;14220 
06.01.2023 12:15:00;14400 
06.01.2023 12:30:00;14160 
06.01.2023 12:45:00;14460 
06.01.2023 13:00:00;14400 
06.01.2023 13:15:00;14460 
06.01.2023 13:30:00;14640 
06.01.2023 13:45:00;14520 
06.01.2023 14:00:00;14400 
06.01.2023 14:15:00;14220 
06.01.2023 14:30:00;14220 
06.01.2023 14:45:00;13800 
06.01.2023 15:00:00;14460 
06.01.2023 15:15:00;15120 
06.01.2023 15:30:00;15240 
06.01.2023 15:45:00;15180 
06.01.2023 16:00:00;14700 
06.01.2023 16:15:00;14580 
06.01.2023 16:30:00;14640 
06.01.2023 16:45:00;14760 
06.01.2023 17:00:00;14460 
06.01.2023 17:15:00;15180 
06.01.2023 17:30:00;15000 
06.01.2023 17:45:00;14880 
06.01.2023 18:00:00;15000 
06.01.2023 18:15:00;15420 
06.01.2023 18:30:00;14940 
06.01.2023 18:45:00;15060 
06.01.2023 19:00:00;15540 
06.01.2023 19:15:00;15600 
06.01.2023 19:30:00;15720 
06.01.2023 19:45:00;15840 
06.01.2023 20:00:00;15780 
06.01.2023 20:15:00;15840 
06.01.2023 20:30:00;15660 
06.01.2023 20:45:00;15840 
06.01.2023 21:00:00;15540 
06.01.2023 21:15:00;15360 
06.01.2023 21:30:00;15060 
06.01.2023 21:45:00;15000 
06.01.2023 22:00:00;14880 
06.01.2023 22:15:00;14880 
06.01.2023 22:30:00;15000 
06.01.2023 22:45:00;14880 
06.01.2023 23:00:00;14880 
06.01.2023 23:15:00;15360 
06.01.2023 23:30:00;15840 
06.01.2023 23:45:00;15840 
07.01.2023 00:00:00;15900 
07.01.2023 00:15:00;15780 
07.01.2023 00:30:00;15900 
07.01.2023 00:45:00;15900 
07.01.2023 01:00:00;15900 
07.01.2023 01:15:00;15900 
07.01.2023 01:30:00;15960 
07.01.2023 01:45:00;15900 
07.01.2023 02:00:00;15900 
07.01.2023 02:15:00;15900 
07.01.2023 02:30:00;15900 
07.01.2023 02:45:00;15900 
07.01.2023 03:00:00;15840 
07.01.2023 03:15:00;15960 
07.01.2023 03:30:00;15900 
07.01.2023 03:45:00;15840 
07.01.2023 04:00:00;15900 
07.01.2023 04:15:00;15900 
07.01.2023 04:30:00;15900 
07.01.2023 04:45:00;15900 
07.01.2023 05:00:00;15960 
07.01.2023 05:15:00;15900 
07.01.2023 05:30:00;15960 
07.01.2023 05:45:00;15900 
07.01.2023 06:00:00;15960 
07.01.2023 06:15:00;15900 
07.01.2023 06:30:00;15840 
07.01.2023 06:45:00;15960 
07.01.2023 07:00:00;15900 
07.01.2023 07:15:00;15900 
07.01.2023 07:30:00;15960 
07.01.2023 07:45:00;15900 
07.01.2023 08:00:00;15900 
07.01.2023 08:15:00;15900 
07.01.2023 08:30:00;15900 
07.01.2023 08:45:00;15900 
07.01.2023 09:00:00;15900 
07.01.2023 09:15:00;15900 
07.01.2023 09:30:00;15900 
07.01.2023 09:45:00;15900 
07.01.2023 10:00:00;15900 
07.01.2023 10:15:00;15900 
07.01.2023 10:30:00;15900 
07.01.2023 10:45:00;15900 
07.01.2023 11:00:00;15900 
07.01.2023 11:15:00;15900 
07.01.2023 11:30:00;15840 
07.01.2023 11:45:00;15960 
07.01.2023 12:00:00;15840 
07.01.2023 12:15:00;15960 
07.01.2023 12:30:00;15900 
07.01.2023 12:45:00;15900 
07.01.2023 13:00:00;15960 
07.01.2023 13:15:00;15840 
07.01.2023 13:30:00;15960 
07.01.2023 13:45:00;15900 
07.01.2023 14:00:00;15900 
07.01.2023 14:15:00;15900 
07.01.2023 14:30:00;15900 
07.01.2023 14:45:00;15900 
07.01.2023 15:00:00;15900 
07.01.2023 15:15:00;15900 
07.01.2023 15:30:00;15960 
07.01.2023 15:45:00;15840 
07.01.2023 16:00:00;15900 
07.01.2023 16:15:00;15840 
07.01.2023 16:30:00;15960 
07.01.2023 16:45:00;15900 
07.01.2023 17:00:00;15900 
07.01.2023 17:15:00;15900 
07.01.2023 17:30:00;15900 
07.01.2023 17:45:00;15900 
07.01.2023 18:00:00;15900 
07.01.2023 18:15:00;15900 
07.01.2023 18:30:00;15900 
07.01.2023 18:45:00;15900 
07.01.2023 19:00:00;15960 
07.01.2023 19:15:00;15900 
07.01.2023 19:30:00;15840 
07.01.2023 19:45:00;15900 
07.01.2023 20:00:00;15900 
07.01.2023 20:15:00;15900 
07.01.2023 20:30:00;15960 
07.01.2023 20:45:00;15960 
07.01.2023 21:00:00;15900 
07.01.2023 21:15:00;15840 
07.01.2023 21:30:00;15960 
07.01.2023 21:45:00;15900 
07.01.2023 22:00:00;15840 
07.01.2023 22:15:00;15960 
07.01.2023 22:30:00;15900 
07.01.2023 22:45:00;15900 
07.01.2023 23:00:00;15900 
07.01.2023 23:15:00;15840 
07.01.2023 23:30:00;15900 
07.01.2023 23:45:00;15900 
08.01.2023 00:00:00;15900 
08.01.2023 00:15:00;15960 
08.01.2023 00:30:00;15840 
08.01.2023 00:45:00;15960 
08.01.2023 01:00:00;15900 
08.01.2023 01:15:00;15960 
08.01.2023 01:30:00;15900 
08.01.2023 01:45:00;15900 
08.01.2023 02:00:00;15900 
08.01.2023 02:15:00;15900 
08.01.2023 02:30:00;15900 
08.01.2023 02:45:00;15900 
08.01.2023 03:00:00;15900 
08.01.2023 03:15:00;15900 
08.01.2023 03:30:00;15900 
08.01.2023 03:45:00;15900 
08.01.2023 04:00:00;15900 
08.01.2023 04:15:00;15900 
08.01.2023 04:30:00;15960 
08.01.2023 04:45:00;15840 
08.01.2023 05:00:00;15900 
08.01.2023 05:15:00;15900 
08.01.2023 05:30:00;15900 
08.01.2023 05:45:00;15900 
08.01.2023 06:00:00;15900 
08.01.2023 06:15:00;15900 
08.01.2023 06:30:00;15900 
08.01.2023 06:45:00;15900 
08.01.2023 07:00:00;15840 
08.01.2023 07:15:00;15900 
08.01.2023 07:30:00;15900 
08.01.2023 07:45:00;15900 
08.01.2023 08:00:00;15900 
08.01.2023 08:15:00;15900 
08.01.2023 08:30:00;15900 
08.01.2023 08:45:00;15900 
08.01.2023 09:00:00;15900 
08.01.2023 09:15:00;15900 
08.01.2023 09:30:00;15900 
08.01.2023 09:45:00;15900 
08.01.2023 10:00:00;15900 
08.01.2023 10:15:00;15900 
08.01.2023 10:30:00;15900 
08.01.2023 10:45:00;15900 
08.01.2023 11:00:00;15900 
08.01.2023 11:15:00;15900 
08.01.2023 11:30:00;15960 
08.01.2023 11:45:00;15900 
08.01.2023 12:00:00;15900 
08.01.2023 12:15:00;15900 
08.01.2023 12:30:00;15900 
08.01.2023 12:45:00;15960 
08.01.2023 13:00:00;15840 
08.01.2023 13:15:00;15900 
08.01.2023 13:30:00;15900 
08.01.2023 13:45:00;15900 
08.01.2023 14:00:00;15960 
08.01.2023 14:15:00;15900 
08.01.2023 14:30:00;15780 
08.01.2023 14:45:00;15960 
08.01.2023 15:00:00;15900 
08.01.2023 15:15:00;15900 
08.01.2023 15:30:00;15900 
08.01.2023 15:45:00;15900 
08.01.2023 16:00:00;15900 
08.01.2023 16:15:00;15840 
08.01.2023 16:30:00;15960 
08.01.2023 16:45:00;15900 
08.01.2023 17:00:00;15900 
08.01.2023 17:15:00;15900 
08.01.2023 17:30:00;15960 
08.01.2023 17:45:00;15900 
08.01.2023 18:00:00;15840 
08.01.2023 18:15:00;15960 
08.01.2023 18:30:00;15900 
08.01.2023 18:45:00;15900 
08.01.2023 19:00:00;15900 
08.01.2023 19:15:00;15900 
08.01.2023 19:30:00;15900 
08.01.2023 19:45:00;15900 
08.01.2023 20:00:00;15900 
08.01.2023 20:15:00;15840 
08.01.2023 20:30:00;15960 
08.01.2023 20:45:00;15840 
08.01.2023 21:00:00;15900 
08.01.2023 21:15:00;15900 
08.01.2023 21:30:00;15900 
08.01.2023 21:45:00;15900 
08.01.2023 22:00:00;15900 
08.01.2023 22:15:00;15900 
08.01.2023 22:30:00;15900 
08.01.2023 22:45:00;15900 
08.01.2023 23:00:00;15900 
08.01.2023 23:15:00;15900 
08.01.2023 23:30:00;15900 
08.01.2023 23:45:00;15900 
09.01.2023 00:00:00;15900 
09.01.2023 00:15:00;15900 
09.01.2023 00:30:00;15900 
09.01.2023 00:45:00;15900 
09.01.2023 01:00:00;15960 
09.01.2023 01:15:00;15840 
09.01.2023 01:30:00;15900 
09.01.2023 01:45:00;15900 
09.01.2023 02:00:00;15900 
09.01.2023 02:15:00;15900 
09.01.2023 02:30:00;15900 
09.01.2023 02:45:00;15900 
09.01.2023 03:00:00;15900 
09.01.2023 03:15:00;15900 
09.01.2023 03:30:00;15960 
09.01.2023 03:45:00;15900 
09.01.2023 04:00:00;15900 
09.01.2023 04:15:00;15900 
09.01.2023 04:30:00;15900 
09.01.2023 04:45:00;15900 
09.01.2023 05:00:00;15900 
09.01.2023 05:15:00;15900 
09.01.2023 05:30:00;15900 
09.01.2023 05:45:00;15900 
09.01.2023 06:00:00;15900 
09.01.2023 06:15:00;15960 
09.01.2023 06:30:00;15840 
09.01.2023 06:45:00;15900 
09.01.2023 07:00:00;15900 
09.01.2023 07:15:00;15900 
09.01.2023 07:30:00;15900 
09.01.2023 07:45:00;15960 
09.01.2023 08:00:00;15900 
09.01.2023 08:15:00;15900 
09.01.2023 08:30:00;15900 
09.01.2023 08:45:00;15840 
09.01.2023 09:00:00;15900 
09.01.2023 09:15:00;15960 
09.01.2023 09:30:00;15900 
09.01.2023 09:45:00;15900 
09.01.2023 10:00:00;15900 
09.01.2023 10:15:00;15900 
09.01.2023 10:30:00;15900 
09.01.2023 10:45:00;15900 
09.01.2023 11:00:00;15900 
09.01.2023 11:15:00;15900 
09.01.2023 11:30:00;15840 
09.01.2023 11:45:00;15900 
09.01.2023 12:00:00;15900 
09.01.2023 12:15:00;15900 
09.01.2023 12:30:00;15900 
09.01.2023 12:45:00;15960 
09.01.2023 13:00:00;15840 
09.01.2023 13:15:00;15900 
09.01.2023 13:30:00;15900 
09.01.2023 13:45:00;15900 
09.01.2023 14:00:00;15840 
09.01.2023 14:15:00;15900 
09.01.2023 14:30:00;15780 
09.01.2023 14:45:00;15840 
09.01.2023 15:00:00;15840 
09.01.2023 15:15:00;15840 
09.01.2023 15:30:00;15960 
09.01.2023 15:45:00;15900 
09.01.2023 16:00:00;15960 
09.01.2023 16:15:00;15900 
09.01.2023 16:30:00;15900 
09.01.2023 16:45:00;15840 
09.01.2023 17:00:00;15900 
09.01.2023 17:15:00;15720 
09.01.2023 17:30:00;15840 
09.01.2023 17:45:00;15840 
09.01.2023 18:00:00;15960 
09.01.2023 18:15:00;15840 
09.01.2023 18:30:00;15900 
09.01.2023 18:45:00;15900 
09.01.2023 19:00:00;15960 
09.01.2023 19:15:00;15840 
09.01.2023 19:30:00;15840 
09.01.2023 19:45:00;15960 
09.01.2023 20:00:00;15900 
09.01.2023 20:15:00;15900 
09.01.2023 20:30:00;15900 
09.01.2023 20:45:00;15960 
09.01.2023 21:00:00;15960 
09.01.2023 21:15:00;15960 